Theta_e
302 304 306 306 307 311 301 303 301 305 306 316 320 323 321 319 319 322 322 322 320 319 320 321 322 324 323 323 324 324 324 323 323 323 324 324 323 323 323 323 323 324 324 326
304 305 306 306 308 311 315 310 309 314 315 323 326 323 319 319 320 321 323 321 320 320 321 322 323 322 324 324 325 327 326 324 325 325 325 324 324 323 323 323 322 323 323 324
300 303 303 302 306 310 314 317 317 312 318 324 322 323 321 321 320 322 324 322 320 321 323 322 322 323 324 325 327 327 325 326 326 326 326 326 326 324 324 325 326 326 326 326
300 302 294 304 310 313 314 317 319 319 321 324 325 326 326 325 323 325 326 325 325 325 323 322 322 323 324 325 325 325 325 325 326 326 326 327 327 327 327 326 326 326 327 328
300 300 301 306 309 309 307 313 321 322 323 323 325 325 324 328 328 328 328 327 326 324 322 323 323 325 324 324 324 324 324 325 326 326 326 326 326 326 327 326 327 328 328 329
302 297 295 306 310 314 312 304 321 324 323 322 322 316 321 328 329 327 326 326 324 321 321 322 324 325 324 323 323 323 325 326 327 327 327 327 328 328 328 327 327 327 327 329
302 300 303 309 312 314 302 306 316 326 325 324 321 322 322 329 328 327 324 323 323 322 323 324 325 324 323 323 322 325 327 327 328 328 328 329 329 329 329 328 327 326 327 329
302 300 297 312 312 307 313 317 324 326 327 326 324 322 325 327 326 324 323 322 322 323 322 322 323 323 323 322 326 326 325 325 326 327 326 326 329 328 328 326 324 324 325 326
307 307 311 314 315 317 316 319 323 327 328 328 326 323 324 326 325 322 322 322 323 323 323 322 322 323 323 325 326 325 325 325 326 327 327 328 326 326 323 325 323 322 320 320
306 309 312 314 316 317 319 321 324 325 328 328 326 324 321 325 325 322 323 323 323 323 322 322 323 323 323 325 325 324 324 325 325 325 325 326 325 323 322 321 321 320 320 320
309 312 313 314 316 318 319 322 322 324 326 327 326 324 323 322 323 323 323 324 324 324 324 324 324 322 322 322 323 322 323 323 324 323 323 323 324 322 322 325 321 321 321 322
309 317 316 317 319 318 320 321 322 322 321 323 325 322 321 322 323 323 323 323 323 324 323 322 321 321 323 323 323 323 321 320 320 320 320 320 320 320 314 311 308 304 304 310
315 315 317 317 318 319 320 322 322 321 320 320 321 321 320 321 321 317 322 321 322 322 322 321 322 322 324 325 323 322 321 321 321 318 319 319 319 318 318 319 306 304 301 301
315 317 315 316 316 318 319 320 318 320 320 321 321 321 321 320 318 320 321 322 322 321 321 322 322 322 325 324 323 323 322 313 319 319 320 319 319 319 319 319 319 320 312 306
317 318 317 319 319 319 321 320 317 316 318 320 321 321 321 320 320 321 322 321 321 321 322 322 321 322 325 324 322 322 322 321 321 321 320 318 319 319 320 320 320 321 323 316
318 317 316 317 317 318 318 316 316 316 318 319 320 321 321 322 321 322 321 322 320 319 321 322 323 324 325 324 322 321 321 316 315 319 319 320 320 320 321 321 322 321 322 322
315 314 315 316 317 317 316 317 318 318 318 319 321 321 321 320 320 321 322 322 322 323 324 323 322 325 325 324 322 321 320 321 319 319 320 320 321 322 322 322 322 322 322 321
322 321 320 320 318 317 317 318 318 318 319 320 322 320 320 320 321 322 323 322 321 321 322 323 324 324 325 324 323 322 321 321 321 320 321 322 322 323 323 323 322 322 321 320
320 320 320 320 320 319 319 319 319 319 319 320 320 320 321 320 321 322 322 321 321 321 323 325 322 320 323 324 322 322 322 321 322 323 323 319 322 323 323 322 322 322 321 319
318 320 321 321 320 320 320 320 320 318 319 319 321 320 319 320 321 321 321 320 321 321 325 324 323 323 324 324 322 322 322 323 323 323 323 322 322 322 322 314 319 319 316 313
318 319 320 321 321 322 322 322 320 319 320 321 320 320 320 320 320 319 318 317 322 324 323 320 322 321 322 321 321 322 323 323 323 323 323 323 323 322 321 320 318 315 314 315
318 319 319 320 321 322 322 321 320 320 320 320 319 318 317 318 319 319 321 319 321 315 319 321 322 320 321 317 321 322 323 324 324 324 322 321 319 318 316 316 314 315 317 317
320 321 322 321 322 322 319 317 318 320 320 320 320 319 318 317 318 317 317 325 322 318 319 321 308 312 313 318 322 324 324 324 323 322 321 321 319 317 314 314 315 317 315 317
320 321 321 320 319 318 318 318 317 320 321 321 321 321 319 317 318 320 321 313 309 311 319 319 314 310 308 321 323 324 324 323 323 321 320 307 315 314 315 316 315 318 317 314
320 320 319 318 318 319 321 320 320 319 319 320 321 322 321 320 318 320 322 323 313 315 323 316 311 310 323 325 324 323 322 321 319 320 319 317 317 318 317 316 315 314 314 313
322 324 322 321 320 320 319 318 317 318 319 318 320 321 321 322 323 320 322 318 323 317 323 325 326 324 323 322 321 320 320 319 319 319 317 319 317 315 314 312 312 312 311 311
325 311 321 320 321 320 319 318 318 318 317 319 319 322 322 323 322 319 315 323 324 324 325 326 325 320 321 321 322 321 321 320 311 318 317 316 314 313 313 311 310 310 309 308
Wind_Speed
5 4 4 2 3 6 8 3 6 3 5 3 9 9 9 8 7 7 7 9 8 7 6 7 8 8 9 9 8 7 6 5 5 5 5 3 4 3 3 2 3 2 3 4
5 1 2 3 2 3 2 3 5 3 4 1 9 12 10 9 7 6 5 7 8 7 7 8 9 8 8 8 8 8 9 8 7 7 7 6 6 6 5 5 4 4 5 6
7 0 3 5 2 2 1 2 3 3 5 9 10 10 11 10 8 9 7 7 7 8 8 8 8 7 8 8 7 6 6 7 8 8 7 6 5 5 5 6 6 6 7 8
0 1 5 3 2 2 1 2 4 2 6 8 8 6 6 9 13 12 12 11 10 6 8 9 8 7 7 7 6 7 7 7 7 7 6 5 5 6 6 6 7 7 8 8
3 4 3 2 5 3 2 5 3 7 8 7 7 5 7 12 12 11 13 10 10 10 8 9 9 8 8 7 6 6 7 7 7 7 6 6 7 7 6 6 7 8 8 9
4 3 5 1 2 2 0 3 3 6 8 10 9 4 4 12 10 8 10 9 10 11 9 9 8 8 9 9 8 8 8 7 7 7 7 8 9 7 6 6 8 8 9 9
3 3 3 2 3 2 4 4 2 9 9 10 5 4 2 9 11 10 10 11 12 11 9 8 9 9 8 6 7 6 5 5 5 6 6 6 7 7 7 8 8 9 9 10
2 3 3 2 4 4 3 2 4 6 8 9 4 4 5 8 11 12 12 14 14 11 9 9 9 9 8 9 6 5 5 6 6 7 6 6 7 7 7 8 9 9 8 9
4 2 2 2 2 1 3 3 4 4 6 7 7 4 7 9 11 13 14 12 10 10 10 9 10 9 7 7 4 5 6 7 8 8 8 6 7 7 7 7 8 8 8 8
3 2 4 3 4 4 4 2 4 2 5 7 5 4 4 6 8 9 9 11 11 11 10 9 8 7 8 5 4 5 8 8 8 7 7 7 6 7 7 8 8 7 8 8
4 4 4 5 6 4 5 6 6 6 5 6 6 5 3 5 7 8 9 9 9 9 8 7 6 7 6 5 5 7 7 7 6 7 8 8 8 8 8 9 8 8 9 8
0 5 2 5 7 6 8 9 8 7 4 4 5 4 5 4 4 7 9 9 9 8 7 5 5 5 6 6 6 5 6 6 7 7 7 8 8 9 12 17 15 13 18 15
1 1 3 0 7 7 6 7 6 4 1 5 3 3 3 2 3 4 6 9 9 8 6 5 5 6 7 5 5 6 7 9 8 8 9 9 9 9 10 9 15 17 17 19
6 6 4 8 6 8 6 7 6 5 4 2 1 2 3 4 5 7 9 8 6 5 6 6 5 7 7 4 5 7 9 10 9 9 9 9 9 10 9 10 11 12 11 14
10 11 3 7 8 10 9 9 8 6 5 5 3 4 4 4 5 7 6 7 6 6 6 7 7 9 8 5 7 9 8 8 9 9 9 10 10 11 11 12 12 12 11 12
6 9 4 12 13 13 11 9 9 8 6 4 4 5 5 4 4 5 7 8 8 8 11 10 8 10 8 7 9 9 9 12 11 9 10 11 10 11 11 11 11 11 11 12
11 7 8 10 13 15 15 12 10 9 7 6 6 3 3 3 2 4 7 8 9 9 7 7 10 10 9 9 11 9 9 10 9 9 11 11 11 11 11 11 11 11 11 11
11 12 15 14 15 13 11 11 8 8 9 8 6 6 5 6 8 8 6 4 6 8 10 11 11 10 10 11 11 9 9 10 11 12 12 12 12 12 12 12 12 12 11 11
14 9 10 9 13 14 12 11 10 7 6 7 6 6 5 7 7 7 5 6 7 8 11 8 8 9 11 13 11 9 10 12 12 11 11 12 11 12 12 11 11 11 10 10
9 8 7 7 8 11 11 7 7 7 7 6 5 4 3 4 4 4 4 7 7 7 9 10 10 10 13 14 12 9 12 13 12 12 11 11 11 12 11 10 9 8 6 3
8 8 8 8 8 8 8 7 8 8 8 7 7 6 5 3 4 4 5 6 10 10 12 12 11 10 10 11 9 10 11 11 11 12 12 12 12 11 10 9 7 6 6 6
7 8 8 7 6 6 6 5 7 7 8 7 6 5 5 6 5 7 10 11 10 8 8 9 10 10 10 8 11 11 12 12 11 10 10 9 6 6 6 7 8 5 5 5
5 5 5 6 5 4 5 5 6 7 8 7 7 7 7 5 4 6 8 6 8 7 8 10 10 13 10 10 10 10 10 10 9 9 8 7 7 6 5 4 5 5 6 6
5 4 4 4 4 4 5 6 7 7 6 5 6 6 5 5 6 7 9 11 11 10 9 11 11 14 8 8 8 8 8 7 6 6 5 4 4 2 2 3 5 7 8 7
5 4 4 3 3 4 3 3 5 5 6 6 6 6 7 6 7 9 7 9 11 9 9 8 8 10 6 6 6 6 5 5 5 3 1 2 3 4 5 6 5 5 5 5
2 1 1 1 3 3 3 4 5 5 5 5 5 5 6 6 7 8 9 10 10 8 8 6 7 6 6 6 5 5 3 3 3 4 3 3 4 4 4 4 5 5 6 7
1 1 2 2 3 3 4 4 5 6 5 4 6 5 6 6 7 8 9 8 7 7 5 6 5 5 5 4 2 3 4 4 6 4 4 4 3 3 4 5 6 6 6 6
Wind_Direction
263 288 259 218 210 189 202 225 248 358 272 13 172 171 132 126 120 129 125 115 113 114 113 116 115 115 109 113 119 125 125 136 164 160 149 136 150 182 199 212 207 190 254 241
220 131 331 257 193 184 184 172 237 263 277 183 145 122 137 147 157 166 155 120 124 129 139 138 130 127 129 131 139 145 155 161 162 158 169 177 173 190 208 224 240 261 258 262
225 130 319 228 360 300 300 252 299 276 31 153 158 166 158 161 172 175 173 165 164 165 159 148 146 139 137 138 137 148 154 156 166 173 182 192 197 216 239 252 264 265 265 262
44 183 231 60 239 280 331 326 244 236 154 171 158 145 163 177 173 175 176 186 175 167 166 150 144 141 134 143 154 161 171 174 182 194 203 208 226 243 254 259 259 262 262 256
220 214 333 199 190 213 278 61 82 136 142 146 148 152 207 196 188 183 180 180 168 160 178 150 151 148 150 157 168 176 189 196 206 213 225 231 238 245 254 261 265 267 269 271
161 215 228 27 188 164 253 126 170 167 166 154 151 196 106 178 171 163 174 181 143 171 166 153 161 167 165 168 179 193 194 198 199 204 221 229 236 248 254 254 269 275 276 272
157 244 264 244 213 226 235 81 192 185 170 164 183 20 31 162 161 162 164 168 156 163 169 157 165 174 181 178 205 210 206 215 220 227 242 261 269 263 266 267 272 272 273 280
145 218 227 148 147 238 42 105 152 176 177 181 166 112 126 149 154 153 162 162 169 159 163 168 175 182 188 206 203 190 192 213 230 240 246 245 246 265 263 266 265 271 274 275
255 25 30 245 260 63 268 136 155 179 185 199 194 159 153 157 163 168 165 162 161 168 169 174 186 200 201 233 217 211 224 237 243 250 251 251 256 270 271 263 268 277 274 271
257 174 259 269 247 236 197 121 146 181 173 195 206 170 148 169 168 168 173 171 172 176 174 176 188 197 229 250 227 235 246 253 255 247 259 265 268 269 272 276 275 276 278 281
246 248 278 254 229 183 154 141 140 142 172 184 188 197 198 170 180 187 182 181 182 179 180 187 188 218 232 251 239 241 247 253 253 257 265 279 274 276 273 268 263 280 284 283
202 194 222 182 179 172 169 165 153 129 136 163 192 189 189 201 183 185 185 181 183 181 191 189 200 231 235 214 215 244 258 261 263 273 273 275 280 284 236 238 258 231 247 250
0 295 206 14 148 152 156 144 135 133 138 182 176 194 192 198 177 162 177 182 191 193 193 195 220 238 242 222 219 244 257 270 268 262 268 274 275 277 286 285 226 242 240 243
206 156 172 187 181 164 145 133 135 107 92 78 124 169 196 194 163 188 194 197 191 194 208 219 227 248 261 242 240 252 259 252 264 267 270 271 271 274 277 279 284 289 256 230
202 211 319 150 146 148 147 147 141 136 134 125 133 149 170 183 209 216 203 185 189 210 225 226 233 251 257 247 245 258 260 263 267 266 267 267 273 272 271 272 272 276 281 278
178 197 209 182 168 162 161 172 163 165 164 149 169 176 178 195 176 180 183 181 187 210 224 228 239 254 268 258 259 268 268 255 259 270 269 266 262 261 265 269 274 276 276 276
151 157 172 173 180 174 186 187 189 177 176 183 201 202 210 212 240 218 206 204 219 246 259 258 257 267 271 268 265 269 271 272 257 265 261 260 263 265 268 273 274 274 271 270
199 187 181 173 183 190 192 202 196 190 197 203 182 194 213 218 234 236 240 226 240 258 260 261 263 267 271 270 264 265 266 269 273 272 272 270 268 268 268 271 272 273 279 288
207 178 178 174 185 192 200 204 206 207 201 198 185 215 237 251 250 256 251 243 256 262 269 262 253 247 265 265 257 263 265 269 272 271 270 270 269 264 265 270 277 283 292 303
188 185 162 181 185 198 209 209 202 201 198 187 172 167 226 254 239 243 230 246 254 257 271 277 269 268 265 266 259 261 263 267 268 270 271 273 275 273 277 280 285 293 302 318
173 173 181 191 200 205 212 190 191 193 179 173 179 192 216 236 218 216 236 255 260 247 249 259 260 261 260 261 267 269 265 265 268 271 275 280 289 298 303 300 286 262 221 205
168 183 191 190 190 201 195 195 191 170 174 182 190 203 219 246 238 241 243 249 272 249 271 270 268 270 271 288 281 277 275 274 276 283 288 296 295 288 282 291 269 232 272 287
143 152 152 161 161 135 142 168 179 184 188 195 210 222 227 253 263 262 278 250 246 278 280 284 282 271 270 277 272 273 274 278 288 298 304 298 291 284 278 241 282 306 280 314
116 125 115 119 132 146 187 189 197 200 207 204 227 236 238 258 264 242 257 282 272 267 283 284 286 286 287 279 271 272 278 295 299 294 307 309 280 234 332 327 297 328 326 322
100 113 120 152 222 248 262 207 195 205 211 225 242 244 239 233 244 285 291 285 280 272 283 295 274 271 285 297 300 301 301 307 337 340 296 129 38 7 344 349 339 340 331 325
89 101 91 244 274 278 250 203 226 209 208 230 249 248 245 239 245 258 274 272 279 283 281 295 304 309 311 309 317 333 6 101 109 80 62 46 25 11 13 352 346 334 344 347
195 328 248 262 238 226 228 214 216 223 206 233 262 262 261 262 254 254 264 275 278 285 298 304 302 314 318 325 44 119 126 97 52 54 52 52 51 33 3 348 353 357 349 345